Regional Weather Roundup
Issued by NWS Cleveland, OH

Home | Current Version | Previous Version | Graphics & Text | Print | Product List | Glossary On
Versions: 1 2 3 4 5 6 7 8 9 10 11 12 13 14 15 16 17 18 19 20 21 22 23 24 25 26 27 28 29 30 31 32 33 34 35 36 37 38 39 40 41 42 43 44 45 46 47 48 49 50
000
ASUS41 KCLE 261400
RWRCLE
OHIO REGIONAL WEATHER ROUNDUP
NATIONAL WEATHER SERVICE WILMINGTON, OH
900 AM EST SUN FEB 26 2017

NOTE: "FAIR" INDICATES FEW OR NO CLOUDS BELOW 12,000 FEET WITH NO
SIGNIFICANT WEATHER AND/OR OBSTRUCTIONS TO VISIBILITY.

OHZ001>008-015>018-024>027-034-035-043-044-261500-
   NORTHWEST OHIO

CITY           SKY/WX    TMP DP  RH WIND       PRES   REMARKS
DEFIANCE       FAIR      26  17  68 SW9       30.14R WCI  17
FINDLAY        FAIR      28  17  63 SW10      30.13R WCI  19
TOLEDO EXPRESS FAIR      27  19  72 SW12      30.12R WCI  17
TOLEDO EXEC    FAIR      28  20  71 SW12      30.14R WCI  18
LIMA           FAIR      26  19  74 SW12      30.15R WCI  16
$$

OHZ009>014-019>023-028>033-038-089-261500-
   NORTHEAST OHIO

CITY           SKY/WX    TMP DP  RH WIND       PRES   REMARKS
CLE-HOPKINS    FLURRIES  28  18  66 W9        30.14R WCI  19
CLE-LAKEFRONT  FLURRIES  29  17  61 W15       30.12R WCI  18
CUY CO. ARPT   FLURRIES  27  19  74 W16       30.11R WCI  14
LORAIN-ELYRIA  CLOUDY    26  16  65 W9        30.14R WCI  17
ASHTABULA      LGT SNOW  24  21  88 SW7       30.10R FOG     WCI  16
AKRON-CANTON   CLOUDY    26  13  57 W14       30.11R WCI  14
WOOSTER        NOT AVBL
MANSFIELD      FAIR      26  15  63 SW12      30.12R WCI  16
YOUNGSTOWN     FLURRIES  26  15  63 SW12      30.09R WCI  16
$$

OHZ042-051>053-060>062-070>072-077>081-261500-
  SOUTHWEST OHIO

CITY           SKY/WX    TMP DP  RH WIND       PRES   REMARKS
CINC-COVINGTON FAIR      27  18  69 SW5       30.20R WCI  22
CINC-LUNKEN    FAIR      29  18  63 SW5       30.25R WCI  24
HAMILTON       FAIR      28  20  71 SW6       30.23R WCI  22
DAYTON         NOT AVBL
WRIGHT-PAT AFB FAIR      27  17  67 W7        30.19R WCI  19
DAYTON GENERAL FAIR      26  18  71 W6        30.19R WCI  19
WILMINGTON     FAIR      27  18  69 W9        30.19R WCI  18
$$

OHZ036-037-039>041-045>050-054>059-063>069-073>076-082>088-261500-
  CENTRAL AND SOUTHEAST OHIO

CITY           SKY/WX    TMP DP  RH WIND       PRES   REMARKS
COLUMBUS       PTSUNNY   30  15  53 W10       30.19R WCI  21
OSU AIRPORT    FAIR      29  15  56 W9        30.18R WCI  20
BOLTON FIELD   SUNNY     28  16  59 NW6       30.19R WCI  22
RICKENBACK AFB NOT AVBL
NEWARK         CLOUDY    29  20  69 NW7       30.17R WCI  22
MARION         FAIR      27  18  69 W9        30.17R WCI  18
LANCASTER      CLOUDY    30  16  56 W9        30.19R WCI  22
ZANESVILLE     CLOUDY    30  18  60 W6        30.16R WCI  24
NEW PHILLY     CLOUDY    27  17  66 NW10      30.16R WCI  17
$$




USA.gov is the U.S. government's official web portal to all federal, state and local government web resources and services.